Weather History for Boscobel, WI

Change the Weather History Date:

Wednesday, November 21, 2012

  Actual Average (KPDC) Record (KPDC)
Temperature  
Mean Temperature 48 °F -  
Max Temperature 62 °F 42 °F 69 °F (1990)
Min Temperature 35 °F 25 °F -3 °F (1964)
Degree Days  
Heating Degree Days 16    
Moisture  
Dew Point 41 °F    
Average Humidity 81    
Maximum Humidity 100    
Minimum Humidity 52    
Precipitation  
Precipitation 0.00 in - - ()
Sea Level Pressure  
Sea Level Pressure 30.10 in    
Wind  
Wind Speed 4 mph (SSW)    
Max Wind Speed 12 mph    
Max Gust Speed 17 mph    
Visibility 10 miles    
Events      
Averages and records for this station are not official NWS values.
T = Trace of Precipitation, MM = Missing Value Source: NWS Daily Summary

Daily Weather History Graph

Daily Weather History Graph

Search for Another Location

Airport:

Trip Planner

Search our weather history database for the weather conditions in past years. The results will help you decide how hot, cold, wet, or windy it might be!

Date:

Astronomy

Nov. 21, 2012 Rise Set
Actual Time 7:03 AM CST 4:33 PM CST
Civil Twilight 6:32 AM CST 5:04 PM CST
Nautical Twilight 5:57 AM CST 5:39 PM CST
Astronomical Twilight 5:23 AM CST 6:13 PM CST
Moon 12:59 PM CST (11/21) 12:12 AM CST (11/21)
Length of Visible Light 10h 32m
Length of Day
9h 29m
First Quarter, 62% of the Moon is Illuminated
Nov 21
First Quarter
Nov 28
Full
Dec 6
Last Quarter
Dec 13
New
Dec 19
First Quarter

Hourly Weather History & Observations

Time (CST) Temp. Windchill Dew Point Humidity Pressure Visibility Wind Dir Wind Speed Gust Speed Precip Events Conditions
12:53 AM 37.0 °F 34.5 °F 37.0 °F 100% 30.20 in - WSW 3.5 mph - N/A   Overcast
1:53 AM 37.0 °F - 37.0 °F 100% 30.18 in - Calm Calm - N/A   Overcast
2:53 AM 37.0 °F 34.5 °F 37.0 °F 100% 30.19 in - South 3.5 mph - N/A   Overcast
3:53 AM 37.0 °F 33.3 °F 37.0 °F 100% 30.18 in - SSW 4.6 mph - N/A   Overcast
4:53 AM 37.9 °F - 37.9 °F 100% 30.18 in - Calm Calm - N/A   Overcast
5:53 AM 37.9 °F - 37.9 °F 100% 30.18 in - Calm Calm - N/A   Overcast
6:53 AM 39.0 °F - 39.0 °F 100% 30.18 in - Calm Calm - N/A   Overcast
7:42 AM 35.6 °F - 35.6 °F 100% 30.16 in - Calm Calm - N/A   Overcast
7:53 AM 37.0 °F - 37.0 °F 100% 30.17 in - Calm Calm - N/A   Mostly Cloudy
8:23 AM 39.2 °F - 39.2 °F 100% 30.16 in - Calm Calm - N/A   Scattered Clouds
8:53 AM 41.0 °F 39.0 °F 41.0 °F 100% 30.17 in 4.0 mi SSW 3.5 mph - N/A   Clear
9:53 AM 48.9 °F - 43.0 °F 80% 30.16 in 9.0 mi SW 9.2 mph - N/A   Clear
10:53 AM 53.1 °F - 43.0 °F 69% 30.13 in 10.0 mi South 9.2 mph - N/A   Clear
11:53 AM 55.9 °F - 43.0 °F 62% 30.10 in 10.0 mi SSW 10.4 mph - N/A   Clear
12:53 PM 60.1 °F - 44.1 °F 55% 30.06 in 10.0 mi South 9.2 mph - N/A   Clear
2:53 PM 62.1 °F - 44.1 °F 52% 30.01 in 10.0 mi SSW 9.2 mph - N/A   Clear
3:53 PM 62.1 °F - 44.1 °F 52% 30.01 in 10.0 mi SSW 9.2 mph - N/A   Clear
4:53 PM 57.9 °F - 44.1 °F 60% 30.01 in 10.0 mi South 6.9 mph - N/A   Clear
5:53 PM 55.9 °F - 44.1 °F 64% 30.01 in 10.0 mi Variable 4.6 mph - N/A   Clear
6:53 PM 55.0 °F - 45.0 °F 69% 30.01 in 10.0 mi SSW 8.1 mph - N/A   Clear
7:53 PM 54.0 °F - 44.1 °F 69% 30.00 in 10.0 mi SSW 11.5 mph 17.3 mph N/A   Clear
8:53 PM 53.1 °F - 44.1 °F 71% 30.00 in 10.0 mi SSW 8.1 mph 17.3 mph N/A   Clear
9:53 PM 51.1 °F - 44.1 °F 77% 30.00 in 10.0 mi SW 8.1 mph - N/A   Clear
10:53 PM 50.0 °F - 44.1 °F 80% 29.98 in 10.0 mi SSW 6.9 mph - N/A   Clear
11:53 PM 52.0 °F - 44.1 °F 74% 29.97 in 10.0 mi South 8.1 mph - N/A   Clear